Weather History for KJAC - August, 2013

Change the Weather History Date:

Friday, August 2, 2013

  Actual Average Record
Temperature  
Mean Temperature 63 °F -  
Max Temperature 78 °F 81 °F 90 °F (1961)
Min Temperature 48 °F 41 °F 33 °F (2006)
Degree Days  
Heating Degree Days 2    
Growing Degree Days 13 (Base 50)    
Moisture  
Dew Point 32 °F    
Average Humidity 35    
Maximum Humidity 66    
Minimum Humidity 13    
Precipitation  
Precipitation 0.00 in - - ()
Sea Level Pressure  
Sea Level Pressure 30.12 in    
Wind  
Wind Speed 4 mph (South)    
Max Wind Speed 15 mph    
Max Gust Speed 25 mph    
Visibility 10 miles    
Events      
Averages and records for this station are not official NWS values.
T = Trace of Precipitation, MM = Missing Value Source: NWS Daily Summary

Daily Weather History Graph

Daily Weather History Graph

Search for Another Location

Airport or City:

Trip Planner

Search our weather history database for the weather conditions in past years. The results will help you decide how hot, cold, wet, or windy it might be!

Date:

Astronomy

Aug. 02, 2013 Rise Set
Actual Time 6:13 AM MDT 8:44 PM MDT
Civil Twilight 5:41 AM MDT 9:16 PM MDT
Nautical Twilight 5:00 AM MDT 9:56 PM MDT
Astronomical Twilight 4:14 AM MDT 10:42 PM MDT
Moon 2:35 AM MDT (8/2) 5:45 PM MDT (8/2)
Length of Visible Light 15h 35m
Length of Day
14h 30m
Waning Crescent, 15% of the Moon is Illuminated
Aug 2
Waning Crescent
Aug 6
New
Aug 14
First Quarter
Aug 20
Full
Aug 28
Last Quarter

Hourly Weather History & Observations

Time (MDT) Temp. Dew Point Humidity Pressure Visibility Wind Dir Wind Speed Gust Speed Precip Events Conditions
12:15 AM 66.2 °F 35.6 °F 32% 30.00 in 10.0 mi SE 4.6 mph - N/A   Clear
12:35 AM 66.2 °F 33.8 °F 30% 30.02 in 10.0 mi Calm Calm - N/A   Scattered Clouds
12:55 AM 66.2 °F 33.8 °F 30% 30.04 in 10.0 mi Calm Calm - N/A   Mostly Cloudy
1:15 AM 66.2 °F 33.8 °F 30% 30.04 in 10.0 mi Calm Calm - N/A   Scattered Clouds
1:35 AM 66.2 °F 33.8 °F 30% 30.05 in 10.0 mi Calm Calm - N/A   Scattered Clouds
1:55 AM 64.4 °F 32.0 °F 30% 30.05 in 10.0 mi WSW 3.5 mph - N/A   Partly Cloudy
2:15 AM 60.8 °F 32.0 °F 34% 30.05 in 10.0 mi East 3.5 mph - N/A   Clear
2:35 AM 60.8 °F 30.2 °F 31% 30.06 in 10.0 mi South 4.6 mph - N/A   Clear
3:15 AM 59.0 °F 30.2 °F 34% 30.07 in 10.0 mi SE 9.2 mph - N/A   Partly Cloudy
3:35 AM 60.8 °F 28.4 °F 29% 30.08 in 10.0 mi SSW 4.6 mph - N/A   Partly Cloudy
3:55 AM 57.2 °F 33.8 °F 41% 30.07 in 10.0 mi ESE 8.1 mph - N/A   Scattered Clouds
4:15 AM 57.2 °F 32.0 °F 38% 30.08 in 10.0 mi SE 3.5 mph - N/A   Partly Cloudy
4:35 AM 55.4 °F 32.0 °F 41% 30.09 in 10.0 mi Calm Calm - N/A   Clear
4:55 AM 53.6 °F 32.0 °F 44% 30.09 in 10.0 mi SSE 5.8 mph - N/A   Clear
5:15 AM 53.6 °F 35.6 °F 51% 30.09 in 10.0 mi Calm Calm - N/A   Clear
5:35 AM 51.8 °F 37.4 °F 58% 30.10 in 10.0 mi Calm Calm - N/A   Clear
5:55 AM 51.8 °F 37.4 °F 58% 30.10 in 10.0 mi Calm Calm - N/A   Clear
6:15 AM 53.6 °F 37.4 °F 54% 30.11 in 10.0 mi Calm Calm - N/A   Clear
6:36 AM 50.0 °F 37.4 °F 62% 30.12 in 10.0 mi SE 4.6 mph - N/A   Clear
6:51 AM 48.2 °F 37.4 °F 66% 30.12 in 10.0 mi Calm Calm - N/A   Clear
6:55 AM 48.2 °F 37.4 °F 66% 30.12 in 10.0 mi Calm Calm - N/A   Clear
7:51 AM 55.4 °F 39.2 °F 54% 30.14 in 10.0 mi SW 3.5 mph - N/A   Clear
8:51 AM 60.8 °F 37.4 °F 42% 30.15 in 10.0 mi SW 5.8 mph - N/A   Clear
9:55 AM 69.8 °F 30.2 °F 23% 30.16 in 10.0 mi SSE 12.7 mph 17.3 mph N/A   Clear
10:53 AM 71.6 °F 24.8 °F 17% 30.16 in 10.0 mi SSW 15.0 mph 18.4 mph N/A   Clear
11:51 AM 73.4 °F 24.8 °F 16% 30.16 in 10.0 mi WSW 11.5 mph 17.3 mph N/A   Clear
12:51 PM 73.4 °F 23.0 °F 15% 30.15 in 10.0 mi SSW 11.5 mph 21.9 mph N/A   Clear
1:51 PM 75.2 °F 24.8 °F 15% 30.15 in 10.0 mi SW 11.5 mph 23.0 mph N/A   Clear
2:52 PM 75.2 °F 24.8 °F 15% 30.14 in 10.0 mi SW 11.5 mph 25.3 mph N/A   Clear
3:51 PM 78.8 °F 23.0 °F 13% 30.13 in 10.0 mi WSW 13.8 mph 20.7 mph N/A   Clear
4:52 PM 77.0 °F 24.8 °F 14% 30.13 in 10.0 mi WSW 13.8 mph - N/A   Partly Cloudy
5:52 PM 77.0 °F 26.6 °F 16% 30.12 in 10.0 mi SW 10.4 mph - N/A   Partly Cloudy
6:53 PM 75.2 °F 28.4 °F 18% 30.12 in 10.0 mi SSW 8.1 mph - N/A   Clear
7:51 PM 71.6 °F 30.2 °F 22% 30.13 in 10.0 mi West 4.6 mph - N/A   Clear
8:51 PM 62.6 °F 30.2 °F 30% 30.14 in 10.0 mi Calm Calm - N/A   Clear
8:55 PM 62.6 °F 30.2 °F 30% 30.14 in 10.0 mi North 5.8 mph - N/A   Clear
9:15 PM 62.6 °F 28.4 °F 27% 30.15 in 10.0 mi ENE 4.6 mph - N/A   Clear
9:35 PM 60.8 °F 30.2 °F 31% 30.16 in 10.0 mi ENE 6.9 mph - N/A   Clear
9:55 PM 57.2 °F 28.4 °F 33% 30.17 in 10.0 mi North 3.5 mph - N/A   Clear
10:15 PM 53.6 °F 35.6 °F 51% 30.17 in 10.0 mi NW 5.8 mph - N/A   Clear
10:35 PM 53.6 °F 33.8 °F 47% 30.17 in 10.0 mi Calm Calm - N/A   Clear
10:55 PM 51.8 °F 33.8 °F 50% 30.18 in 10.0 mi North 8.1 mph - N/A   Clear
11:15 PM 53.6 °F 30.2 °F 41% 30.18 in 10.0 mi ENE 5.8 mph - N/A   Clear
11:35 PM 53.6 °F 32.0 °F 44% 30.18 in 10.0 mi East 6.9 mph - N/A   Clear
11:55 PM 53.6 °F 32.0 °F 44% 30.17 in 10.0 mi NE 3.5 mph - N/A   Clear